Location: Chervonnoye
(48.6000°N, 34.4000°E)
Time: 16:33:49
(UTC+00:00)

Cosmos 1606 - Pass Details

Date: 23 November 2020
Orbit: 503 x 527 km, 82.5° (Epoch: 28 January)

Event Time Altitude Azimuth Distance (km) Brightness Sun altitude
Rises 15:39:40 0° 186° (S) 2,651 6.5 -17.0°
Reaches altitude 10° 15:41:48 10° 185° (S) 1,768 5.6 -17.3°
Maximum altitude 15:45:41 83° 98° (E) 539 2.6 -17.9°
Enters shadow 15:48:47 16° 12° (NNE) 1,448 4.7 -18.4°
